Regional Weather Roundup
Issued by NWS

Home | Current Version | Previous Version | Text Only | Print | Product List | Glossary Off
Versions: 1 2 3 4 5 6 7 8 9 10 11 12 13 14 15 16 17 18 19 20 21 22 23 24 25 26 27 28 29 30 31 32 33 34 35 36 37 38 39 40 41 42 43 44 45 46 47 48 49

000
ASUS45 KBOU 160807
RWRCO

WEATHER ROUNDUP FOR COLORADO
NATIONAL WEATHER SERVICE DENVER/BOULDER CO
200 AM MDT TUE SEP 16 2014

NOTE: "FAIR" INDICATES FEW OR NO CLOUDS BELOW 12000 FEET WITH NO
SIGNIFICANT WEATHER AND/OR OBSTRUCTIONS TO VISIBILITY.

COZ001>005-013-030-031-160900-
...NORTHWEST COLORADO...

CITY           SKY/WX    TMP DP  RH WIND       PRES   REMARKS
CRAIG          CLEAR     43  38  82 CALM      30.29R
HAYDEN         CLEAR     52  36  54 E9        30.30R
MEEKER         CLEAR     48  39  71 E6        30.31R
MOUNT WERNER   NOT AVBL
STEAMBOAT SPGS CLEAR     48  39  71 CALM      30.34R
WALDEN         PTCLDY    37  32  81 SE7       30.39S
$$

COZ006>008-011-160900-
...WEST CENTRAL VALLEYS...

CITY           SKY/WX    TMP DP  RH WIND       PRES   REMARKS
GRAND JUNCTION CLEAR     63  41  44 SE10      30.18R
MONTROSE       CLEAR     60  40  47 SE9       30.27S
EAGLE          CLEAR     48  39  71 E3        30.37R
RIFLE          CLEAR     52  41  66 SE5       30.26R
DELTA          CLEAR     61  42  49 NE8       30.23S HAZE
NUCLA          CLEAR     59  37  44 E7        30.31R
$$

COZ017>023-064>068-160900-
...SOUTHWEST COLORADO...

CITY           SKY/WX    TMP DP  RH WIND       PRES   REMARKS
DURANGO        CLEAR     53  41  63 N8        30.37R
CORTEZ         CLEAR     60  45  57 CALM      30.30R
PAGOSA SPRINGS MOCLDY    56  38  51 CALM      30.46R
TELLURIDE      NOT AVBL
WOLF CREEK PAS PTCLDY    41  36  81 SW21G26   30.69S
$$

COZ009-010-012-014-032>034-037-058>063-160900-
...CENTRAL COLORADO...

CITY           SKY/WX    TMP DP  RH WIND       PRES   REMARKS
ASPEN          CLEAR     48  36  63 SW8       30.40S
BUENA VISTA    CLEAR     45  40  82 W7        30.45S
COPPER MTN     CLEAR     48  30  49 SW8       30.68S
BERTHOUD PASS  FAIR      37  37 100 W14       30.71S
COTTONWOOD PAS CLEAR     52  36  54 NW3       30.55S
GUNNISON       CLEAR     46  34  61 E3        30.45R
KREMMLING      CLEAR     37  36  93 CALM      30.41R
LEADVILLE      CLEAR     40  36  86 E6        30.55S
SALIDA         CLEAR     54  46  74 NW5       30.49S
SUNLIGHT       CLEAR     54  30  40 CALM      30.61S
WILKERSON PASS NOT AVBL
$$

COZ069>075-160900-
...SAN LUIS VALLEY/SANGRE DE CRISTO MOUNTAINS...

CITY           SKY/WX    TMP DP  RH WIND       PRES   REMARKS
ALAMOSA        PTCLDY    48  42  80 SE6       30.41F
LA VETA PASS   NOT AVBL
SAGUACHE       NOT AVBL
$$

COZ035-036-038>040-160900-
...NORTHERN COLORADO FRONT RANGE...

CITY           SKY/WX    TMP DP  RH WIND       PRES   REMARKS
DENVER INTL AP CLEAR     54  48  80 SW8       30.21F
DMNS CITY PARK   N/A     53  51  94 SE2       30.20F
AURORA         CLEAR     56  49  75 S14       30.22F
FRONT RANGE AP CLEAR     57  50  77 SW3       30.22S
ERIE MUNI ARPT CLEAR     48  46  93 CALM      30.21S
BOULDER MUN AP CLEAR     52  50  93 CALM      30.21S
CENTENNIAL     CLEAR     55  48  77 S12       30.24F
BROOMFIELD     CLEAR     59  45  58 CALM      30.23S
FORT COLLINS   CLEAR     52  46  82 CALM      30.21S
LONGMONT       CLEAR     50  46  86 CALM      30.22S
$$

COZ041-046-047-076>085-087-088-160900-
...PIKES PEAK/PALMER DIVIDE AND SOUTHERN FOOTHILLS...

CITY           SKY/WX    TMP DP  RH WIND       PRES   REMARKS
COLO. SPRINGS  CLOUDY    53  51  93 S6        30.33F FOG
A. F. ACADEMY  CLOUDY    52  51  95 SE3       30.34F
ELLICOTT       NOT AVBL
FALCON         CLOUDY    50  50  99 SW9       30.36F FOG
FORT CARSON    CLOUDY    53  53  99 SE7       30.31F
LIMON          CLOUDY    52  51  97 S14       30.29F
MONUMENT HILL  CLEAR     46  45  93 S8        30.33S
TRINIDAD       CLOUDY    53  51  93 CALM      30.32F
$$

COZ042>045-048>051-090-091-160900-
...NORTHEAST COLORADO...

CITY           SKY/WX    TMP DP  RH WIND       PRES   REMARKS
GREELEY ARPT   CLEAR     48  41  76 CALM      30.20S
AKRON          CLEAR     52  49  89 S12       30.20F
BURLINGTON     CLEAR     57  50  77 S10       30.25F
WRAY           CLEAR     53  51  92 S6        30.21F
STERLING       CLEAR     54  52  94 S6        30.16F
HOLYOKE        CLEAR     54  50  87 SE6       30.21S
FORT MORGAN    CLEAR     50  49  95 CALM      30.19F
$$

COZ086-089-092>099-160900-
...SOUTHEAST COLORADO...

CITY           SKY/WX    TMP DP  RH WIND       PRES   REMARKS
PUEBLO         MOCLDY    52  50  93 NE5       30.28F
LA JUNTA       CLOUDY    59  52  77 SE7       30.27F
LAMAR          CLOUDY    60  53  77 S6        30.25F
SPRINGFIELD      N/A     56  54  93 S3        30.29F
$$


USA.gov is the U.S. government's official web portal to all federal, state and local government web resources and services.